Language: 


Des rapports , des résumés tant et plus, au choix de chacun....


Données statistiques de la station
Quotidien Rapport Janvier 31, 2018 Unités:  Métrique    Anglais   les deux
« Précédent Jour
Suivant Jour »
Quotidien Hebdomadaire Mensuel Annuel Actuel
  Haut: Bas: Moyen:
Température: -17.8 °C -16.8 °C -13.4 °C
Pt de rosée: -17.8 °C -17.8 °C -13.8 °C
Humidité: Humidity % 81 % 94 %
Vitesse du vent: 0 km/h 0 km/h 28.5 km/h
Rafales: 0 km/h - -
Vent:- - WSW
Pression: 0 hPa 33890.5 hPa -
Précipitation: 213.36 mm    
Historical Graphs
 
 
Données statistiques pour Janvier 31, 2018
Heure Température Point de rosée Pression Vent Vitesse du vent Refales Humidité Pluie (taux horaire)
-17.8 °C -17.8 °C 0 hPa Calm     Humidity % 0 mm
00:00 -12.6 °C -12.8 °C 34476.3 hPa SSW 15.6 km/h 26.7 km/h 98 % 0 mm
00:05 -12.6 °C -12.8 °C 34476.3 hPa SW 14.5 km/h 26.7 km/h 98 % 0 mm
00:10 -12.6 °C -12.8 °C 34476.3 hPa SSW 20.3 km/h 22.5 km/h 98 % 0 mm
00:15 -12.6 °C -12.8 °C 34428.8 hPa SW 19.2 km/h 22.5 km/h 98 % 0 mm
00:20 -12.6 °C -12.8 °C 34428.8 hPa SW 19.6 km/h 26.2 km/h 98 % 0 mm
00:25 -12.5 °C -12.2 °C 34428.8 hPa SW 22.5 km/h 28.5 km/h 98 % 0 mm
00:30 -12.4 °C -12.2 °C 34405.1 hPa South 14.5 km/h 28.5 km/h 98 % 0 mm
00:35 -12.4 °C -12.2 °C 34405.1 hPa SSW 16.3 km/h 28.5 km/h 98 % 0 mm
00:40 -12.4 °C -12.2 °C 34405.1 hPa WSW 22.5 km/h 32.3 km/h 98 % 0 mm
00:45 -12.3 °C -12.2 °C 34428.8 hPa WSW 20.9 km/h 33.6 km/h 98 % 0 mm
00:50 -12.3 °C -12.2 °C 34428.8 hPa SW 25.4 km/h 33.6 km/h 98 % 0 mm
00:56 -12.3 °C -12.2 °C 34428.8 hPa SW 32.3 km/h 33.6 km/h 98 % 0 mm
01:01 -12.3 °C -12.2 °C 34428.8 hPa SW 27.2 km/h 37.5 km/h 98 % 0 mm
01:06 -12.2 °C -12.2 °C 34428.8 hPa WSW 26.7 km/h 40.7 km/h 98 % 0 mm
01:11 -12.2 °C -12.2 °C 34428.8 hPa WSW 23.8 km/h 40.7 km/h 98 % 0 mm
01:16 -12.2 °C -12.2 °C 34405.1 hPa SW 32.3 km/h 37 km/h 98 % 0 mm
01:21 -12.2 °C -12.2 °C 34405.1 hPa SW 26.7 km/h 37 km/h 98 % 0 mm
01:26 -12.2 °C -12.2 °C 34405.1 hPa WSW 28.5 km/h 36.5 km/h 98 % 0 mm
01:31 -12.2 °C -12.2 °C 34405.1 hPa WSW 34.8 km/h 41.7 km/h 98 % 0 mm
01:36 -12.2 °C -12.2 °C 34405.1 hPa WSW 33.6 km/h 41.7 km/h 98 % 0 mm
01:41 -12.2 °C -12.2 °C 34405.1 hPa WSW 22.5 km/h 37 km/h 98 % 0 mm
01:46 -12.2 °C -12.2 °C 34371.3 hPa WSW 19.6 km/h 38.3 km/h 98 % 0 mm
01:51 -12.2 °C -12.2 °C 34371.3 hPa WSW 29 km/h 43.5 km/h 98 % 0 mm
01:56 -12.2 °C -12.2 °C 34371.3 hPa WSW 33.6 km/h 43.5 km/h 98 % 0 mm
02:01 -12.2 °C -12.2 °C 34337.4 hPa WSW 20.9 km/h 39.9 km/h 98 % 0 mm
02:06 -12.2 °C -12.2 °C 34337.4 hPa WSW 31.9 km/h 39.9 km/h 98 % 7.62 mm
02:11 -12.2 °C -12.2 °C 34337.4 hPa WSW 27.2 km/h 44.1 km/h 98 % 7.62 mm
02:16 -12.2 °C -12.2 °C 34371.3 hPa WSW 26.7 km/h 45.1 km/h 98 % 7.62 mm
02:21 -12.2 °C -12.2 °C 34371.3 hPa SSW 31.9 km/h 45.9 km/h 98 % 7.62 mm
02:26 -12.2 °C -12.2 °C 34371.3 hPa West 27.7 km/h 50.5 km/h 98 % 7.62 mm
02:31 -12.2 °C -12.2 °C 34371.3 hPa WSW 34.1 km/h 50.5 km/h 98 % 7.62 mm
02:36 -12.2 °C -12.2 °C 34371.3 hPa WSW 37.5 km/h 49.7 km/h 98 % 7.62 mm
02:41 -12.2 °C -12.2 °C 34371.3 hPa WSW 27.2 km/h 45.9 km/h 98 % 7.62 mm
02:46 -12.2 °C -12.2 °C 34371.3 hPa WSW 32.3 km/h 57.9 km/h 98 % 7.62 mm
02:51 -12.2 °C -12.2 °C 34371.3 hPa SW 33.2 km/h 57.9 km/h 98 % 7.62 mm
02:56 -12.2 °C -12.2 °C 34371.3 hPa WSW 27.7 km/h 50.5 km/h 98 % 7.62 mm
03:01 -12.3 °C -12.2 °C 34337.4 hPa WSW 26.7 km/h 45.1 km/h 98 % 7.62 mm
03:06 -12.3 °C -12.2 °C 34337.4 hPa WSW 32.3 km/h 45.1 km/h 98 % 0 mm
03:11 -12.3 °C -12.2 °C 34337.4 hPa SSW 31.9 km/h 51 km/h 98 % 0 mm
03:16 -12.3 °C -12.2 °C 34337.4 hPa WSW 49.2 km/h 51 km/h 98 % 0 mm
03:21 -12.3 °C -12.2 °C 34337.4 hPa WSW 31.9 km/h 50.5 km/h 98 % 0 mm
03:27 -12.3 °C -12.2 °C 34337.4 hPa WSW 44.1 km/h 50.5 km/h 98 % 0 mm
03:32 -12.3 °C -12.2 °C 34303.6 hPa SW 28.5 km/h 51.5 km/h 98 % 0 mm
03:37 -12.3 °C -12.2 °C 34303.6 hPa WSW 32.3 km/h 51.5 km/h 98 % 0 mm
03:42 -12.3 °C -12.2 °C 34303.6 hPa SW 33.6 km/h 45.1 km/h 98 % 7.62 mm
03:47 -12.3 °C -12.2 °C 34303.6 hPa WSW 24.3 km/h 42.2 km/h 98 % 7.62 mm
03:52 -12.3 °C -12.2 °C 34303.6 hPa SSW 37 km/h 39.9 km/h 98 % 7.62 mm
03:57 -12.3 °C -12.2 °C 34303.6 hPa WSW 38.3 km/h 51 km/h 98 % 7.62 mm
04:02 -12.3 °C -12.2 °C 34303.6 hPa SSW 33.6 km/h 51.5 km/h 98 % 7.62 mm
04:07 -12.3 °C -12.2 °C 34303.6 hPa WSW 26.2 km/h 59.1 km/h 98 % 7.62 mm
04:12 -12.3 °C -12.2 °C 34303.6 hPa SW 38.3 km/h 59.5 km/h 98 % 7.62 mm
04:17 -12.3 °C -12.2 °C 34303.6 hPa SSW 26.7 km/h 59.5 km/h 98 % 7.62 mm
04:22 -12.3 °C -12.2 °C 34303.6 hPa WSW 27.7 km/h 59.1 km/h 98 % 7.62 mm
04:27 -12.3 °C -12.2 °C 34303.6 hPa WSW 39.4 km/h 48.1 km/h 98 % 7.62 mm
04:32 -12.3 °C -12.2 °C 34269.7 hPa SW 32.3 km/h 48.1 km/h 98 % 7.62 mm
04:37 -12.3 °C -12.2 °C 34269.7 hPa WSW 26.7 km/h 56.6 km/h 98 % 0 mm
04:42 -12.3 °C -12.2 °C 34269.7 hPa SW 33.6 km/h 56.6 km/h 98 % 0 mm
04:47 -12.3 °C -12.2 °C 34235.8 hPa SSW 40.7 km/h 56.6 km/h 98 % 0 mm
04:52 -12.3 °C -12.2 °C 34235.8 hPa SSW 48.6 km/h 62.6 km/h 98 % 0 mm
04:57 -12.3 °C -12.2 °C 34235.8 hPa SW 44.1 km/h 62.6 km/h 98 % 0 mm
05:02 -12.3 °C -12.2 °C 34235.8 hPa WSW 33.2 km/h 60.8 km/h 98 % 0 mm
05:07 -12.3 °C -12.2 °C 34235.8 hPa WSW 37.5 km/h 60.8 km/h 98 % 0 mm
05:12 -12.3 °C -12.2 °C 34235.8 hPa SW 33.2 km/h 56.6 km/h 98 % 0 mm
05:18 -12.3 °C -12.2 °C 34235.8 hPa WSW 27.7 km/h 56.6 km/h 98 % 0 mm
05:23 -12.3 °C -12.2 °C 34235.8 hPa SW 23.8 km/h 46.3 km/h 98 % 0 mm
05:28 -12.3 °C -12.2 °C 34235.8 hPa SSW 23.8 km/h 39.4 km/h 98 % 0 mm
05:33 -12.3 °C -12.2 °C 34235.8 hPa SSW 45.1 km/h 51.5 km/h 98 % 0 mm
05:38 -12.3 °C -12.2 °C 34235.8 hPa SW 26.2 km/h 51.5 km/h 98 % 0 mm
05:43 -12.3 °C -12.2 °C 34235.8 hPa SW 34.1 km/h 42.2 km/h 98 % 0 mm
05:48 -12.3 °C -12.2 °C 34235.8 hPa WSW 45.1 km/h 59.1 km/h 98 % 0 mm
05:53 -12.3 °C -12.2 °C 34235.8 hPa WSW 46.8 km/h 59.1 km/h 98 % 0 mm
05:58 -12.3 °C -12.2 °C 34235.8 hPa WSW 44.6 km/h 48.1 km/h 98 % 0 mm
06:03 -12.3 °C -12.2 °C 34235.8 hPa South 46.3 km/h 46.8 km/h 98 % 0 mm
06:08 -12.3 °C -12.2 °C 34235.8 hPa WSW 48.1 km/h 51.5 km/h 98 % 0 mm
06:13 -12.3 °C -12.2 °C 34235.8 hPa WSW 28.5 km/h 57.3 km/h 98 % 0 mm
06:18 -12.3 °C -12.2 °C 34198.6 hPa WSW 28.5 km/h 57.3 km/h 98 % 0 mm
06:23 -12.3 °C -12.2 °C 34198.6 hPa SW 39.9 km/h 58.6 km/h 98 % 0 mm
06:28 -12.3 °C -12.2 °C 34198.6 hPa WSW 33.6 km/h 58.6 km/h 98 % 0 mm
06:33 -12.3 °C -12.2 °C 34198.6 hPa SW 26.7 km/h 46.8 km/h 98 % 0 mm
06:38 -12.3 °C -12.2 °C 34198.6 hPa SW 34.1 km/h 63.2 km/h 98 % 0 mm
06:43 -12.3 °C -12.2 °C 34198.6 hPa SSW 32.3 km/h 63.2 km/h 98 % 0 mm
06:48 -12.3 °C -12.2 °C 34198.6 hPa SSW 49.7 km/h 52.8 km/h 98 % 0 mm
06:53 -12.3 °C -12.2 °C 34198.6 hPa WSW 34.1 km/h 51 km/h 98 % 0 mm
06:58 -12.3 °C -12.2 °C 34198.6 hPa WSW 32.3 km/h 45.9 km/h 98 % 7.62 mm
07:03 -12.3 °C -12.2 °C 34198.6 hPa SSW 37 km/h 45.9 km/h 98 % 7.62 mm
07:08 -12.3 °C -12.2 °C 34198.6 hPa WSW 39.4 km/h 45.1 km/h 98 % 7.62 mm
07:13 -12.3 °C -12.2 °C 34198.6 hPa SW 26.7 km/h 44.6 km/h 98 % 7.62 mm
07:18 -12.3 °C -12.2 °C 34198.6 hPa WSW 27.7 km/h 39.9 km/h 98 % 7.62 mm
07:23 -12.3 °C -12.2 °C 34198.6 hPa SSW 45.9 km/h 45.9 km/h 98 % 7.62 mm
07:29 -12.3 °C -12.2 °C 34164.7 hPa SW 46.8 km/h 46.8 km/h 98 % 7.62 mm
07:34 -12.3 °C -12.2 °C 34164.7 hPa SW 39.4 km/h 51 km/h 98 % 7.62 mm
07:39 -12.3 °C -12.2 °C 34164.7 hPa WSW 39.9 km/h 51 km/h 98 % 7.62 mm
07:44 -12.3 °C -12.2 °C 34164.7 hPa SSW 27.2 km/h 57.3 km/h 98 % 7.62 mm
07:49 -12.3 °C -12.2 °C 34164.7 hPa SW 26.2 km/h 57.3 km/h 98 % 7.62 mm
07:54 -12.3 °C -12.2 °C 34164.7 hPa WSW 31.9 km/h 50.5 km/h 98 % 0 mm
07:59 -12.4 °C -12.2 °C 34130.9 hPa WSW 34.8 km/h 44.6 km/h 98 % 0 mm
08:04 -12.4 °C -12.2 °C 34130.9 hPa WSW 31.9 km/h 45.9 km/h 98 % 0 mm
08:09 -12.4 °C -12.2 °C 34130.9 hPa SSW 38.3 km/h 45.9 km/h 98 % 0 mm
08:14 -12.4 °C -12.2 °C 34130.9 hPa WSW 32.3 km/h 45.9 km/h 98 % 0 mm
08:19 -12.4 °C -12.2 °C 34164.7 hPa SW 33.6 km/h 51 km/h 98 % 7.62 mm
08:24 -12.4 °C -12.2 °C 34164.7 hPa SW 33.2 km/h 51 km/h 98 % 7.62 mm
08:29 -12.4 °C -12.2 °C 34164.7 hPa WSW 34.1 km/h 49.2 km/h 98 % 7.62 mm
08:34 -12.4 °C -12.2 °C 34164.7 hPa SSW 37 km/h 39.9 km/h 98 % 7.62 mm
08:39 -12.5 °C -12.2 °C 34164.7 hPa SSW 20.3 km/h 38.3 km/h 98 % 7.62 mm
08:44 -12.5 °C -12.2 °C 34164.7 hPa WSW 31.4 km/h 50.5 km/h 98 % 7.62 mm
08:49 -12.5 °C -12.2 °C 34164.7 hPa SSW 24.3 km/h 50.5 km/h 98 % 7.62 mm
08:54 -12.6 °C -12.8 °C 34164.7 hPa SSW 45.1 km/h 45.1 km/h 98 % 7.62 mm
08:56 -12.6 °C -12.8 °C 34164.7 hPa WSW 26.7 km/h 45.1 km/h 98 % 7.62 mm
09:01 -12.6 °C -12.8 °C 34130.9 hPa SW 20.9 km/h 45.1 km/h 98 % 7.62 mm
09:06 -12.6 °C -12.8 °C 34130.9 hPa WSW 35.2 km/h 46.3 km/h 98 % 7.62 mm
09:11 -12.6 °C -12.8 °C 34130.9 hPa SSW 26.2 km/h 46.3 km/h 98 % 7.62 mm
09:16 -12.6 °C -12.8 °C 34130.9 hPa SW 31.9 km/h 38.3 km/h 98 % 7.62 mm
09:21 -12.6 °C -12.8 °C 34130.9 hPa SSW 27.7 km/h 38.3 km/h 98 % 0 mm
09:26 -12.6 °C -12.8 °C 34130.9 hPa WSW 22 km/h 37.5 km/h 98 % 0 mm
09:31 -12.6 °C -12.8 °C 34130.9 hPa SW 22 km/h 42.2 km/h 98 % 7.62 mm
09:36 -12.6 °C -12.8 °C 34130.9 hPa WSW 36 km/h 42.2 km/h 98 % 7.62 mm
09:41 -12.6 °C -12.8 °C 34130.9 hPa SW 33.6 km/h 39.9 km/h 98 % 7.62 mm
09:46 -12.6 °C -12.8 °C 34097 hPa WSW 35.2 km/h 37.5 km/h 98 % 20.32 mm
09:51 -12.6 °C -12.8 °C 34097 hPa WSW 44.6 km/h 44.6 km/h 98 % 20.32 mm
09:56 -12.6 °C -12.8 °C 34097 hPa WSW 34.8 km/h 77.7 km/h 98 % 20.32 mm
10:01 -12.6 °C -12.8 °C 34097 hPa SW 34.1 km/h 77.7 km/h 98 % 20.32 mm
10:07 -12.6 °C -12.8 °C 34097 hPa WNW 33.2 km/h 39.9 km/h 98 % 20.32 mm
10:12 -12.6 °C -12.8 °C 34097 hPa WSW 17.9 km/h 39.9 km/h 98 % 25.4 mm
10:17 -12.6 °C -12.8 °C 34097 hPa West 48.1 km/h 48.1 km/h 98 % 33.02 mm
10:22 -12.7 °C -12.8 °C 34097 hPa WSW 58.6 km/h 70.2 km/h 98 % 38.1 mm
10:27 -12.7 °C -12.8 °C 34097 hPa West 39.9 km/h 70.2 km/h 98 % 33.02 mm
10:32 -12.7 °C -12.8 °C 34097 hPa WSW 39.9 km/h 53.9 km/h 98 % 33.02 mm
10:37 -12.7 °C -12.8 °C 34097 hPa WSW 59.5 km/h 59.5 km/h 98 % 33.02 mm
10:42 -12.7 °C -12.8 °C 34097 hPa WSW 51.5 km/h 59.5 km/h 98 % 33.02 mm
10:47 -12.7 °C -12.8 °C 34097 hPa WSW 35.2 km/h 59.5 km/h 98 % 20.32 mm
10:52 -12.6 °C -12.8 °C 34097 hPa WSW 45.1 km/h 51.5 km/h 98 % 20.32 mm
10:57 -12.6 °C -12.8 °C 34097 hPa WSW 33.2 km/h 57.3 km/h 98 % 20.32 mm
11:02 -12.6 °C -12.8 °C 34097 hPa WSW 33.6 km/h 57.3 km/h 98 % 20.32 mm
11:07 -12.6 °C -12.8 °C 34097 hPa WSW 50.5 km/h 51.5 km/h 98 % 20.32 mm
11:12 -12.6 °C -12.8 °C 34097 hPa WSW 41.2 km/h 50.5 km/h 98 % 20.32 mm
11:17 -12.6 °C -12.8 °C 34097 hPa SW 45.9 km/h 50.5 km/h 98 % 12.7 mm
11:22 -12.7 °C -12.8 °C 34097 hPa WSW 36 km/h 67.1 km/h 98 % 7.62 mm
11:27 -12.7 °C -12.8 °C 34097 hPa WSW 86.3 km/h 86.3 km/h 98 % 12.7 mm
11:32 -12.8 °C -12.8 °C 34097 hPa WSW 86.3 km/h 86.3 km/h 98 % 25.4 mm
11:37 -12.8 °C -12.8 °C 34097 hPa West 61.3 km/h 86.3 km/h 98 % 25.4 mm
11:42 -12.8 °C -12.8 °C 34097 hPa West 61.3 km/h 86.3 km/h 98 % 33.02 mm
11:47 -12.9 °C -12.8 °C 34097 hPa West 37 km/h 61.3 km/h 98 % 33.02 mm
11:52 -12.9 °C -12.8 °C 34097 hPa WSW 39.4 km/h 61.3 km/h 98 % 38.1 mm
11:57 -12.9 °C -12.8 °C 34097 hPa West 68.4 km/h 68.4 km/h 98 % 45.72 mm
12:02 -12.9 °C -12.8 °C 34063.2 hPa WSW 60.8 km/h 73.5 km/h 98 % 58.42 mm
12:07 -12.9 °C -12.8 °C 34063.2 hPa WSW 34.8 km/h 73.5 km/h 98 % 63.5 mm
12:12 -13 °C -12.8 °C 34063.2 hPa West 42.2 km/h 63.2 km/h 98 % 58.42 mm
12:17 -13 °C -12.8 °C 34063.2 hPa WSW 41.2 km/h 54.4 km/h 98 % 63.5 mm
12:22 -13 °C -12.8 °C 34063.2 hPa WSW 49.7 km/h 50.5 km/h 98 % 71.12 mm
12:27 -13 °C -12.8 °C 34063.2 hPa WSW 45.9 km/h 56.6 km/h 98 % 63.5 mm
12:32 -13.1 °C -12.8 °C 34063.2 hPa WSW 57.9 km/h 63.2 km/h 98 % 63.5 mm
12:38 -13.1 °C -12.8 °C 34063.2 hPa WSW 57.9 km/h 63.2 km/h 98 % 63.5 mm
12:43 -13.1 °C -12.8 °C 34063.2 hPa WSW 57.9 km/h 57.9 km/h 98 % 63.5 mm
12:48 -13.2 °C -12.8 °C 34029.3 hPa WSW 57.9 km/h 57.9 km/h 98 % 63.5 mm
12:53 -13.2 °C -13.3 °C 34029.3 hPa WSW 57.9 km/h 57.9 km/h 97 % 58.42 mm
12:58 -13.2 °C -13.3 °C 34029.3 hPa WSW 57.9 km/h 57.9 km/h 98 % 58.42 mm
13:03 -13.2 °C -13.3 °C 33992.1 hPa WSW 57.9 km/h 57.9 km/h 98 % 45.72 mm
13:08 -13.2 °C -13.3 °C 33992.1 hPa WSW 57.9 km/h 57.9 km/h 98 % 38.1 mm
13:13 -13.3 °C -13.3 °C 33992.1 hPa WSW 57.9 km/h 57.9 km/h 98 % 45.72 mm
13:18 -13.3 °C -13.3 °C 34029.3 hPa WSW 57.9 km/h 57.9 km/h 98 % 38.1 mm
13:23 -13.3 °C -13.3 °C 34029.3 hPa WSW 57.9 km/h 57.9 km/h 98 % 33.02 mm
13:28 -13.3 °C -13.3 °C 34029.3 hPa WSW 57.9 km/h 57.9 km/h 98 % 33.02 mm
13:33 -13.3 °C -13.3 °C 34029.3 hPa WSW 57.9 km/h 57.9 km/h 98 % 20.32 mm
13:38 -13.3 °C -13.3 °C 34029.3 hPa WSW 57.9 km/h 57.9 km/h 97 % 20.32 mm
13:43 -13.3 °C -13.3 °C 34029.3 hPa WSW 57.9 km/h 57.9 km/h 96 % 12.7 mm
13:48 -13.3 °C -13.3 °C 33992.1 hPa WSW 57.9 km/h 57.9 km/h 96 % 12.7 mm
13:53 -13.3 °C -13.3 °C 33992.1 hPa WSW 57.9 km/h 57.9 km/h 95 % 12.7 mm
13:58 -13.3 °C -13.9 °C 33992.1 hPa WSW 57.9 km/h 57.9 km/h 94 % 7.62 mm
14:03 -13.3 °C -13.9 °C 33958.2 hPa WSW 57.9 km/h 57.9 km/h 94 % 7.62 mm
14:08 -13.3 °C -13.9 °C 33958.2 hPa WSW 57.9 km/h 57.9 km/h 92 % 7.62 mm
14:13 -13.2 °C -13.9 °C 33958.2 hPa WSW 57.9 km/h 57.9 km/h 91 % 0 mm
14:18 -13.2 °C -13.9 °C 33958.2 hPa WSW 57.9 km/h 57.9 km/h 90 % 0 mm
14:23 -13.2 °C -13.9 °C 33958.2 hPa WSW 57.9 km/h 57.9 km/h 90 % 0 mm
14:26 -13.2 °C -13.9 °C 33958.2 hPa WSW 57.9 km/h 57.9 km/h 89 % 0 mm
14:31 -13.2 °C -13.9 °C 33958.2 hPa WSW 26.2 km/h 26.2 km/h 88 % 0 mm
14:36 -13.2 °C -13.9 °C 33958.2 hPa WSW 26.2 km/h 26.2 km/h 87 % 0 mm
14:41 -13.2 °C -14.4 °C 33958.2 hPa WSW 26.2 km/h 26.2 km/h 86 % 0 mm
14:46 -13.2 °C -14.4 °C 33924.3 hPa WSW 26.2 km/h 26.2 km/h 86 % 0 mm
14:51 -13.1 °C -14.4 °C 33924.3 hPa WSW 30.7 km/h 30.7 km/h 86 % 0 mm
14:57 -13.1 °C -14.4 °C 33924.3 hPa WSW 30.7 km/h 30.7 km/h 85 % 0 mm
15:02 -13.1 °C -13.9 °C 33958.2 hPa WSW 30.7 km/h 30.7 km/h 86 % 0 mm
15:07 -13.1 °C -13.9 °C 33958.2 hPa WSW 30.7 km/h 30.7 km/h 86 % 0 mm
15:12 -13.1 °C -13.9 °C 33958.2 hPa WSW 30.7 km/h 30.7 km/h 86 % 0 mm
15:17 -12.9 °C -13.9 °C 33924.3 hPa WSW 30.7 km/h 30.7 km/h 86 % 0 mm
15:22 -12.9 °C -13.9 °C 33924.3 hPa WSW 30.7 km/h 30.7 km/h 86 % 0 mm
15:27 -12.9 °C -13.9 °C 33924.3 hPa WSW 30.7 km/h 30.7 km/h 86 % 0 mm
15:32 -12.9 °C -13.9 °C 33924.3 hPa WSW 30.7 km/h 30.7 km/h 86 % 0 mm
15:37 -12.9 °C -13.9 °C 33924.3 hPa WSW 30.7 km/h 30.7 km/h 87 % 0 mm
15:42 -13 °C -13.9 °C 33924.3 hPa WSW 30.7 km/h 30.7 km/h 88 % 0 mm
15:47 -13.1 °C -13.9 °C 33924.3 hPa WSW 30.7 km/h 30.7 km/h 90 % 7.62 mm
15:52 -13.2 °C -13.9 °C 33924.3 hPa WSW 31.4 km/h 39.9 km/h 92 % 12.7 mm
15:57 -13.3 °C -13.9 °C 33924.3 hPa WSW 31.4 km/h 39.9 km/h 94 % 20.32 mm
16:02 -13.3 °C -13.9 °C 33924.3 hPa West 28.5 km/h 56.6 km/h 94 % 33.02 mm
16:07 -13.3 °C -13.3 °C 33924.3 hPa West 28.5 km/h 56.6 km/h 95 % 33.02 mm
16:12 -13.4 °C -13.9 °C 33924.3 hPa West 28.5 km/h 28.5 km/h 95 % 33.02 mm
16:17 -13.5 °C -13.9 °C 33924.3 hPa West 28.5 km/h 28.5 km/h 95 % 33.02 mm
16:23 -13.7 °C -13.9 °C 33924.3 hPa West 28.5 km/h 28.5 km/h 95 % 33.02 mm
16:28 -13.7 °C -14.4 °C 33924.3 hPa West 28.5 km/h 28.5 km/h 94 % 33.02 mm
16:33 -13.8 °C -14.4 °C 33924.3 hPa West 28.5 km/h 28.5 km/h 94 % 33.02 mm
16:38 -13.9 °C -14.4 °C 33924.3 hPa North 7.6 km/h 7.6 km/h 95 % 33.02 mm
16:43 -14 °C -14.4 °C 33924.3 hPa North 7.6 km/h 7.6 km/h 95 % 33.02 mm
16:48 -14 °C -14.4 °C 33924.3 hPa North 7.6 km/h 7.6 km/h 95 % 25.4 mm
16:53 -14.1 °C -14.4 °C 33924.3 hPa North 7.6 km/h 7.6 km/h 95 % 20.32 mm
16:58 -14.1 °C -14.4 °C 33924.3 hPa North 7.6 km/h 7.6 km/h 95 % 7.62 mm
17:03 -14.2 °C -14.4 °C 33890.5 hPa North 7.6 km/h 7.6 km/h 95 % 0 mm
17:08 -14.2 °C -14.4 °C 33890.5 hPa North 7.6 km/h 7.6 km/h 96 % 0 mm
17:13 -14.2 °C -14.4 °C 33890.5 hPa North 7.6 km/h 7.6 km/h 96 % 0 mm
17:18 -14.2 °C -14.4 °C 33890.5 hPa North 7.6 km/h 7.6 km/h 96 % 0 mm
17:23 -14.3 °C -14.4 °C 33890.5 hPa North 7.6 km/h 7.6 km/h 96 % 0 mm
17:28 -14.3 °C -14.4 °C 33890.5 hPa North 7.6 km/h 7.6 km/h 97 % 0 mm
17:33 -14.4 °C -14.4 °C 33890.5 hPa SW 6.9 km/h 15 km/h 97 % 0 mm
17:38 -14.5 °C -14.4 °C 33890.5 hPa WSW 9.8 km/h 15 km/h 97 % 0 mm
17:43 -14.5 °C -14.4 °C 33890.5 hPa WSW 14 km/h 18.7 km/h 97 % 0 mm
17:48 -14.6 °C -14.4 °C 33924.3 hPa Calm   18.7 km/h 97 % 0 mm
17:53 -14.6 °C -14.4 °C 33924.3 hPa Calm   16.3 km/h 98 % 0 mm
17:55 -14.6 °C -14.4 °C 33924.3 hPa WSW 18.7 km/h 18.7 km/h 98 % 0 mm
18:00 -14.6 °C -14.4 °C 33890.5 hPa WSW 15.6 km/h 22.5 km/h 98 % 0 mm
18:05 -14.6 °C -14.4 °C 33890.5 hPa WSW 17.4 km/h 22.5 km/h 98 % 0 mm
18:10 -14.6 °C -14.4 °C 33890.5 hPa WSW 19.2 km/h 20.9 km/h 98 % 0 mm
18:15 -14.6 °C -14.4 °C 33890.5 hPa WSW 16.9 km/h 22 km/h 98 % 0 mm
18:20 -14.6 °C -14.4 °C 33890.5 hPa WSW 16.3 km/h 25.4 km/h 98 % 0 mm
18:25 -14.6 °C -14.4 °C 33890.5 hPa WSW 22.5 km/h 25.4 km/h 98 % 0 mm
18:30 -14.5 °C -14.4 °C 33890.5 hPa WSW 18.7 km/h 22.5 km/h 98 % 0 mm
18:35 -14.4 °C -14.4 °C 33890.5 hPa SW 19.2 km/h 25.4 km/h 98 % 0 mm
18:40 -14.4 °C -14.4 °C 33890.5 hPa West 26.7 km/h 33.6 km/h 98 % 0 mm
18:45 -14.3 °C -14.4 °C 33924.3 hPa West 26.2 km/h 37.5 km/h 98 % 0 mm
18:50 -14.3 °C -14.4 °C 33924.3 hPa West 27.7 km/h 37.5 km/h 98 % 0 mm
18:55 -14.3 °C -14.4 °C 33924.3 hPa West 22.5 km/h 44.6 km/h 96 % 0 mm
19:00 -14.3 °C -15 °C 33924.3 hPa West 33.6 km/h 44.6 km/h 92 % 0 mm
19:05 -14.3 °C -15 °C 33924.3 hPa West 25.4 km/h 41.2 km/h 91 % 0 mm
19:10 -14.3 °C -15 °C 33924.3 hPa West 27.7 km/h 41.2 km/h 88 % 0 mm
19:15 -14.4 °C -15.6 °C 33890.5 hPa West 26.7 km/h 39.9 km/h 86 % 0 mm
19:20 -14.4 °C -15.6 °C 33890.5 hPa West 19.6 km/h 32.3 km/h 85 % 0 mm
19:25 -14.5 °C -15.6 °C 33890.5 hPa West 20.9 km/h 32.3 km/h 85 % 0 mm
19:30 -14.6 °C -15.6 °C 33924.3 hPa West 19.2 km/h 32.3 km/h 84 % 0 mm
19:35 -14.6 °C -16.1 °C 33924.3 hPa West 15 km/h 32.3 km/h 82 % 0 mm
19:40 -14.6 °C -16.1 °C 33924.3 hPa West 20.3 km/h 32.3 km/h 82 % 0 mm
19:45 -14.6 °C -16.1 °C 33924.3 hPa West 20.3 km/h 32.3 km/h 82 % 0 mm
19:50 -14.6 °C -16.1 °C 33924.3 hPa West 14 km/h 27.2 km/h 82 % 0 mm
19:56 -14.6 °C -16.1 °C 33924.3 hPa West 22 km/h 28.5 km/h 82 % 0 mm
20:01 -14.7 °C -16.1 °C 33924.3 hPa West 9.3 km/h 28.5 km/h 82 % 0 mm
20:06 -14.8 °C -16.1 °C 33924.3 hPa West 2.3 km/h 27.7 km/h 83 % 0 mm
20:11 -14.9 °C -16.1 °C 33924.3 hPa Calm   16.9 km/h 83 % 0 mm
20:16 -14.9 °C -16.1 °C 33924.3 hPa WSW 9.3 km/h 14 km/h 83 % 0 mm
20:21 -14.9 °C -16.1 °C 33924.3 hPa West 9.3 km/h 20.3 km/h 82 % 0 mm
20:26 -15 °C -16.1 °C 33924.3 hPa WSW 9.3 km/h 20.3 km/h 82 % 0 mm
20:31 -15.1 °C -16.7 °C 33924.3 hPa West 14 km/h 19.6 km/h 82 % 0 mm
20:36 -15.2 °C -16.7 °C 33924.3 hPa West 14.5 km/h 16.9 km/h 81 % 0 mm
20:41 -15.3 °C -17.2 °C 33924.3 hPa Calm   16.9 km/h 81 % 0 mm
20:46 -15.4 °C -17.2 °C 33924.3 hPa Calm   12.7 km/h 81 % 0 mm
20:51 -15.6 °C -17.2 °C 33924.3 hPa Calm   10.3 km/h 82 % 0 mm
20:56 -15.7 °C -17.2 °C 33924.3 hPa Calm   11.1 km/h 82 % 0 mm
21:01 -15.8 °C -17.2 °C 33924.3 hPa Calm   11.1 km/h 83 % 0 mm
21:06 -15.9 °C -17.2 °C 33924.3 hPa Calm   11.1 km/h 83 % 0 mm
21:11 -16 °C -17.2 °C 33924.3 hPa WSW 12.2 km/h 12.2 km/h 84 % 0 mm
21:16 -16.1 °C -17.2 °C 33924.3 hPa Calm   14.5 km/h 84 % 0 mm
21:21 -16.1 °C -17.2 °C 33924.3 hPa West 12.7 km/h 14.5 km/h 85 % 0 mm
21:26 -16.1 °C -17.2 °C 33924.3 hPa West 12.7 km/h 16.3 km/h 85 % 0 mm
21:31 -16.1 °C -17.2 °C 33890.5 hPa West 12.7 km/h 16.9 km/h 86 % 0 mm
21:36 -15.9 °C -16.7 °C 33890.5 hPa West 2.3 km/h 22.5 km/h 87 % 0 mm
21:42 -15.9 °C -16.7 °C 33890.5 hPa WNW 15.6 km/h 22.5 km/h 87 % 0 mm
21:47 -15.9 °C -16.7 °C 33924.3 hPa West 10.3 km/h 20.9 km/h 87 % 0 mm
21:52 -15.9 °C -16.7 °C 33924.3 hPa WNW 6.4 km/h 19.6 km/h 87 % 0 mm
21:57 -15.9 °C -17.2 °C 33924.3 hPa Calm   15 km/h 86 % 0 mm
22:02 -16.1 °C -17.2 °C 33924.3 hPa Calm   15 km/h 86 % 0 mm
22:07 -16.1 °C -17.2 °C 33924.3 hPa Calm   12.2 km/h 86 % 0 mm
22:12 -16.2 °C -17.2 °C 33924.3 hPa Calm   11.1 km/h 86 % 0 mm
22:17 -16.3 °C -17.2 °C 33924.3 hPa Calm   9.8 km/h 87 % 0 mm
22:22 -16.3 °C -17.2 °C 33924.3 hPa Calm   5.6 km/h 87 % 0 mm
22:27 -16.4 °C -17.2 °C 33924.3 hPa Calm   3.4 km/h 87 % 0 mm
22:32 -16.5 °C -17.2 °C 33890.5 hPa Calm   3.4 km/h 87 % 0 mm
22:37 -16.7 °C -17.2 °C 33890.5 hPa Calm     87 % 0 mm
22:42 -16.8 °C -17.8 °C 33890.5 hPa Calm     87 % 0 mm
22:47 -16.8 °C -17.8 °C 33924.3 hPa Calm     88 % 0 mm
22:52 -16.7 °C -17.2 °C 33924.3 hPa Calm   14 km/h 89 % 0 mm
22:57 -16.7 °C -17.2 °C 33924.3 hPa Calm   14 km/h 89 % 0 mm
23:02 -16.6 °C -17.2 °C 33924.3 hPa WSW 9.8 km/h 14.5 km/h 90 % 0 mm
23:07 -16.6 °C -17.2 °C 33924.3 hPa WSW 16.3 km/h 16.3 km/h 90 % 0 mm
23:12 -16.6 °C -17.2 °C 33924.3 hPa WSW 12.2 km/h 17.4 km/h 91 % 0 mm
23:17 -16.5 °C -17.2 °C 33890.5 hPa WSW 16.3 km/h 17.4 km/h 91 % 0 mm
23:22 -16.5 °C -17.2 °C 33890.5 hPa Calm   16.3 km/h 91 % 0 mm
23:27 -16.6 °C -17.2 °C 33890.5 hPa Calm   14 km/h 91 % 0 mm
23:32 -16.6 °C -17.2 °C 33890.5 hPa Calm     91 % 0 mm
23:37 -16.6 °C -17.2 °C 33890.5 hPa WSW 11.1 km/h 16.3 km/h 91 % 0 mm
23:42 -16.6 °C -17.2 °C 33890.5 hPa Calm   16.3 km/h 91 % 0 mm
23:47 -16.6 °C -17.2 °C 33890.5 hPa Calm   16.3 km/h 92 % 0 mm
23:53 -16.6 °C -17.2 °C 33890.5 hPa West 12.7 km/h 16.3 km/h 92 % 0 mm
23:58 -16.6 °C -17.2 °C 33890.5 hPa West 8 km/h 14 km/h 92 % 0 mm
Le Gheer Warneton
Courtoisie de Weather Underground - 2.5 mb

Mise a jour : 25/02/2018 18:17:11
Généré par Cumulus 1.9.4 (1099)